星链-2525 (STARLINK-2525 )

导读 | 豆包AI

STARLINK-2525是美国太空探索技术公司(SpaceX)星链互联网星座中的一颗卫星,于2021年5月9日发射入轨,属于Starlink Group 2组星链卫星。星链星座旨在为全球提供高速低延迟宽带互联网服务,这颗卫星承担着扩展星座覆盖范围、提升全球网络服务能力的任务,是SpaceX大规模星链组网部署中的组成单元。

基本信息
目录编号:
48482
目录名称:
STARLINK-2525
国际标识:
2021-040BG
轨道中心:
EARTH
卫星名称:
星链-2525
卫星全名:
星链-2525 (STARLINK-2525 )
卫星状态:
在轨 (已飞行1817 天)
发射日期:
2021-05-09 UTC
国别 :
美国 (US)
星等 :
--
轨道信息
数据来源 国际轨道数据
星历时间: 2026-04-30T00:44:15+0800
20小时前
查看轨道信息
半长轴: 6848.859km
偏心率: 0.0001332
轨道倾角: 53.159°
近地点辐角 61.256°
升交点赤经 316.781°
平近点角 298.858°
近地点: 469.809km
远地点: 471.635km
周期: 94.013分钟
每日圈数: 15.317063
详细信息
固有亮度:
5
最大亮度:
2.5
卫星平台:
Starlink V1.0
覆盖范围:
全球
运营商:
太空探索技术公司
运营商所在国:
美国
制造商(研发单位):
太空探索技术公司
制造商所在国:
美国
使用方式:
暂无
卫星简介
星链(Starlink)计划是由太空探索技术公司(SpaceX)提出的一个巨型低轨卫星互联网星座项目,计划在2019年至2024年间在太空搭建由约1.2万颗卫星组成的“星链”网络,其中1584颗将部署在地球上空550千米处的近地轨道,并从2020年开始工作。该卫星仍在工作。
2D轨道图
3D轨道图
轨道高度分析图
轨道倾角分析图
轨道综合分析图
查看轨道综合分析图